Weather History for Kremmling, CO

Change the Weather History Date:

Friday, January 18, 2013

  Actual Average (KEGE) Record (KEGE)
Temperature  
Mean Temperature -6 °F -  
Max Temperature 10 °F 37 °F 49 °F (1986)
Min Temperature -22 °F 9 °F -26 °F (1955)
Degree Days  
Heating Degree Days 71    
Moisture  
Dew Point -16 °F    
Average Humidity 72    
Maximum Humidity 85    
Minimum Humidity 57    
Precipitation  
Precipitation 0.00 in - - ()
Sea Level Pressure  
Sea Level Pressure 30.44 in    
Wind  
Wind Speed 0 mph (ESE)    
Max Wind Speed 7 mph    
Max Gust Speed -    
Averages and records for this station are not official NWS values.
T = Trace of Precipitation, MM = Missing Value Source: NWS Daily Summary

Daily Weather History Graph

Daily Weather History Graph

Search for Another Location

Airport:

Trip Planner

Search our weather history database for the weather conditions in past years. The results will help you decide how hot, cold, wet, or windy it might be!

Date:

Astronomy

Jan. 18, 2013 Rise Set
Actual Time 7:24 AM MST 5:08 PM MST
Civil Twilight 6:54 AM MST 5:37 PM MST
Nautical Twilight 6:21 AM MST 6:11 PM MST
Astronomical Twilight 5:48 AM MST 6:43 PM MST
Moon 11:04 AM MST (1/18) 12:01 AM MST (1/18)
Length of Visible Light 10h 43m
Length of Day
9h 44m
Waxing Crescent, 48% of the Moon is Illuminated
Jan 18
Waxing Crescent
Jan 18
First Quarter
Jan 26
Full
Feb 3
Last Quarter
Feb 10
New

Hourly Weather History & Observations

Time (MST) Temp. Windchill Dew Point Humidity Pressure Visibility Wind Dir Wind Speed Gust Speed Precip Events Conditions
12:16 AM -16.6 °F - -23.8 °F 70% 30.49 in - Calm Calm - N/A   Clear
12:36 AM -16.6 °F - -23.8 °F 70% 30.49 in - Calm Calm - N/A   Clear
12:56 AM -16.6 °F - -23.8 °F 70% 30.49 in - Calm Calm - N/A   Clear
1:16 AM -16.6 °F - -23.8 °F 70% 30.49 in - Calm Calm - N/A   Clear
1:36 AM -16.6 °F - -23.8 °F 70% 30.50 in - Calm Calm - N/A   Clear
1:56 AM -16.6 °F - -23.8 °F 70% 30.51 in - Calm Calm - N/A   Clear
2:16 AM -16.6 °F - -23.8 °F 70% 30.50 in - Calm Calm - N/A   Clear
2:36 AM -18.4 °F - -25.6 °F 70% 30.49 in - Calm Calm - N/A   Clear
2:56 AM -18.4 °F - -25.6 °F 70% 30.50 in - Calm Calm - N/A   Clear
3:16 AM -20.2 °F - -27.4 °F 69% 30.49 in - Calm Calm - N/A   Clear
3:56 AM -20.2 °F - -27.4 °F 69% 30.49 in - Calm Calm - N/A   Clear
4:15 AM -18.4 °F - -25.6 °F 70% 30.49 in - Calm Calm - N/A   Clear
4:36 AM -20.2 °F - -27.4 °F 69% 30.48 in - Calm Calm - N/A   Clear
4:56 AM -20.2 °F - -27.4 °F 69% 30.49 in - Calm Calm - N/A   Clear
5:16 AM -20.2 °F -30.9 °F -27.4 °F 69% 30.48 in - ENE 3.5 mph - N/A   Clear
5:36 AM -22.0 °F - -27.4 °F 76% 30.49 in - Calm Calm - N/A   Clear
5:56 AM -22.0 °F - -27.4 °F 76% 30.49 in - Calm Calm - N/A   Mostly Cloudy
6:16 AM -22.0 °F - -27.4 °F 76% 30.49 in - Calm Calm - N/A   Unknown
6:36 AM -20.2 °F - -27.4 °F 69% 30.49 in - Calm Calm - N/A   Overcast
6:56 AM -22.0 °F - -27.4 °F 76% 30.49 in - Calm Calm - N/A   Overcast
7:36 AM -18.4 °F - -25.6 °F 70% 30.50 in - Calm Calm - N/A   Overcast
7:56 AM -18.4 °F - -25.6 °F 70% 30.50 in - Calm Calm - N/A   Overcast
8:16 AM -18.4 °F - -25.6 °F 70% 30.51 in - Calm Calm - N/A   Overcast
8:36 AM -16.6 °F - -23.8 °F 70% 30.51 in - Calm Calm - N/A   Overcast
9:16 AM -13.0 °F - -18.4 °F 77% 30.51 in - Calm Calm - N/A   Overcast
9:36 AM -13.0 °F - -18.4 °F 77% 30.52 in - Calm Calm - N/A   Overcast
9:56 AM -9.4 °F - -16.6 °F 71% 30.52 in - Calm Calm - N/A   Overcast
10:16 AM -7.6 °F - -14.8 °F 71% 30.51 in - Calm Calm - N/A   Overcast
10:36 AM -5.8 °F - -9.4 °F 84% 30.51 in - Calm Calm - N/A   Overcast
10:56 AM -2.2 °F - -7.6 °F 78% 30.49 in - Calm Calm - N/A   Overcast
11:16 AM -0.4 °F - -5.8 °F 78% 30.48 in - Calm Calm - N/A   Overcast
11:36 AM 1.4 °F - -4.0 °F 78% 30.47 in - Calm Calm - N/A   Overcast
11:56 AM 3.2 °F - -0.4 °F 85% 30.46 in - Calm Calm - N/A Snow Light Snow
12:16 PM 3.2 °F - -0.4 °F 85% 30.44 in - Calm Calm - N/A Snow Light Snow
12:36 PM 8.6 °F - 1.4 °F 73% 30.43 in - Calm Calm - N/A   Scattered Clouds
12:55 PM 8.6 °F - 1.4 °F 73% 30.42 in - Calm Calm - N/A   Clear
1:16 PM 10.4 °F - 1.4 °F 67% 30.41 in - Calm Calm - N/A Snow Light Snow
1:36 PM 8.6 °F - -4.0 °F 57% 30.41 in - Calm Calm - N/A   Clear
1:56 PM 8.6 °F - -4.0 °F 57% 30.40 in - Calm Calm - N/A   Clear
2:16 PM 3.2 °F - -5.8 °F 66% 30.39 in - Calm Calm - N/A   Clear
2:36 PM 5.0 °F - -5.8 °F 61% 30.38 in - Calm Calm - N/A   Clear
2:56 PM 5.0 °F - -5.8 °F 61% 30.38 in - Calm Calm - N/A   Clear
3:16 PM 3.2 °F - -5.8 °F 66% 30.38 in - Calm Calm - N/A   Clear
3:36 PM 3.2 °F -4.2 °F -5.8 °F 66% 30.39 in - South 3.5 mph - N/A   Clear
3:56 PM 3.2 °F - -5.8 °F 66% 30.39 in - Calm Calm - N/A   Clear
4:16 PM 3.2 °F - -5.8 °F 66% 30.39 in - Calm Calm - N/A   Clear
4:36 PM 1.4 °F - -7.6 °F 66% 30.39 in - Calm Calm - N/A   Clear
4:56 PM -0.4 °F - -7.6 °F 72% 30.39 in - Calm Calm - N/A   Clear
5:16 PM -2.2 °F - -9.4 °F 71% 30.39 in - Calm Calm - N/A   Clear
5:36 PM -4.0 °F - -13.0 °F 65% 30.39 in - Calm Calm - N/A   Clear
5:56 PM -4.0 °F - -9.4 °F 78% 30.40 in - Calm Calm - N/A   Clear
6:16 PM -5.8 °F - -11.2 °F 77% 30.39 in - Calm Calm - N/A   Clear
6:36 PM -5.8 °F - -11.2 °F 77% 30.39 in - Calm Calm - N/A   Clear
6:56 PM -7.6 °F -22.1 °F -13.0 °F 77% 30.38 in - ESE 6.9 mph - N/A   Clear
7:35 PM -7.6 °F - -13.0 °F 77% 30.38 in - Calm Calm - N/A   Clear
7:56 PM -9.4 °F - -14.8 °F 77% 30.38 in - Calm Calm - N/A   Clear
8:16 PM -9.4 °F - -14.8 °F 77% 30.37 in - Calm Calm - N/A   Clear
8:36 PM -9.4 °F - -14.8 °F 77% 30.36 in - Calm Calm - N/A   Clear
8:56 PM -9.4 °F - -14.8 °F 77% 30.36 in - Calm Calm - N/A   Clear
9:15 PM -9.4 °F - -14.8 °F 77% 30.37 in - Calm Calm - N/A   Clear
9:36 PM -13.0 °F - -18.4 °F 77% 30.37 in - Calm Calm - N/A   Clear
9:56 PM -13.0 °F - -18.4 °F 77% 30.36 in - Calm Calm - N/A   Clear
10:16 PM -13.0 °F - -16.6 °F 84% 30.37 in - Calm Calm - N/A   Scattered Clouds
10:36 PM -13.0 °F - -18.4 °F 77% 30.37 in - Calm Calm - N/A   Scattered Clouds
10:55 PM -13.0 °F - -18.4 °F 77% 30.37 in - Calm Calm - N/A Snow Light Snow
11:16 PM -13.0 °F -22.7 °F -18.4 °F 77% 30.36 in - ENE 3.5 mph - N/A   Clear
11:36 PM -14.8 °F -27.2 °F -22.0 °F 70% 30.36 in - West 4.6 mph - N/A   Clear
11:56 PM -14.8 °F - -22.0 °F 70% 30.36 in - Calm Calm - N/A   Clear